Location: ???????
(55.4362°N, 38.1183°E)
Time: 17:13:45
(UTC+00:00)

Cosmos 2278 Rocket - Pass Details

Date: 27 October 2021
Orbit: 841 x 845 km, 71.0° (Epoch: 28 November)

Event Time Altitude Azimuth Distance (km) Brightness Sun altitude
Rises 15:17:11 0° 323° (NW) 3,419 5.8 -11.5°
Reaches altitude 10° 15:19:52 10° 332° (NNW) 2,480 4.9 -11.9°
Maximum altitude 15:25:02 34° 38° (NE) 1,364 3.0 -12.6°
Enters shadow 15:28:32 18° 92° (E) 1,954 3.4 -13.1°
